Location: Unspecified
(0.0000°N, 0.0000°E)
Time: 01:23:32
(UTC+00:00)

deb Explorer IX - All Passes

Search period start: 18 February 2018 00:00
Search period end: 28 February 2018 00:00
Orbit: 548 x 1113 km, 38.8° (Epoch: 17 February)

Date Brightness Start Highest point End Pass type
(mag) Time Alt. Az. Time Alt. Az. Time Alt. Az.
18 Feb - 03:06:32 10° NNW 03:11:26 30° NE 03:15:44 10° E visible
18 Feb - 04:53:53 10° WNW 04:58:29 33° SW 05:02:33 10° SSE visible
18 Feb - 14:03:01 10° SSE 14:05:24 13° SE 14:07:56 10° ESE daylight
18 Feb - 15:46:39 10° SW 15:52:29 82° SE 15:59:18 10° NE daylight
18 Feb - 17:35:39 10° W 17:40:15 20° NW 17:45:11 10° N daylight
19 Feb - 02:45:53 10° NNW 02:51:06 32° NE 02:55:38 10° ESE visible
19 Feb - 04:33:29 10° WNW 04:38:09 31° SW 04:42:16 10° SSE visible
19 Feb - 13:42:37 10° SSE 13:45:02 13° SE 13:47:35 10° ESE daylight
19 Feb - 15:26:23 10° SW 15:32:03 87° SE 15:38:43 10° NE daylight
19 Feb - 17:15:34 10° WNW 17:19:50 18° NW 17:24:25 10° N daylight
20 Feb - 02:25:15 10° NNW 02:30:45 35° NE 02:35:30 10° ESE night (unlit)
20 Feb - 04:13:03 10° WNW 04:17:49 30° SW 04:22:00 10° SSE visible
20 Feb - 13:22:15 10° SSE 13:24:40 13° SE 13:27:14 10° ESE daylight
20 Feb - 15:06:07 10° SW 15:11:38 89° NW 15:18:09 10° NE daylight
20 Feb - 16:55:31 10° WNW 16:59:25 17° NW 17:03:38 10° N daylight
21 Feb - 02:04:37 10° NNW 02:10:23 39° NE 02:15:21 10° ESE night (unlit)
21 Feb - 03:52:37 10° WNW 03:57:28 29° SW 04:01:43 10° SSE visible
21 Feb - 13:01:53 10° SSE 13:04:19 13° SE 13:06:55 10° ESE daylight
21 Feb - 14:45:53 10° SW 14:51:15 84° NW 14:57:36 10° NE daylight
21 Feb - 16:35:32 10° WNW 16:39:02 16° NW 16:42:47 10° N daylight
22 Feb - 01:44:00 10° NNW 01:50:00 42° NE 01:55:11 10° ESE night (unlit)
22 Feb - 03:32:11 10° WNW 03:37:07 28° SW 03:41:26 10° SSE visible
22 Feb - 12:41:31 10° SSE 12:43:58 14° SE 12:46:35 10° ESE daylight
22 Feb - 14:25:40 10° SW 14:30:52 79° NW 14:37:02 10° NE daylight
22 Feb - 16:15:36 10° WNW 16:18:39 14° NW 16:21:54 10° N daylight
23 Feb - 01:23:22 10° NNW 01:29:37 45° NE 01:35:00 10° ESE night (unlit)
23 Feb - 03:11:44 10° W 03:16:44 28° SW 03:21:09 10° SSE visible
23 Feb - 12:21:10 10° S 12:23:38 14° SE 12:26:16 10° ESE daylight
23 Feb - 14:05:28 10° SW 14:10:30 74° NW 14:16:28 10° NE daylight
23 Feb - 15:55:48 10° WNW 15:58:18 13° NNW 16:00:56 10° N daylight
24 Feb - 01:02:44 10° NW 01:09:13 49° NE 01:14:48 10° ESE night (unlit)
24 Feb - 02:51:17 10° W 02:56:22 27° SW 03:00:51 10° SSE night (unlit)
24 Feb - 12:00:49 10° S 12:03:19 14° SE 12:05:58 10° ESE daylight
24 Feb - 13:45:16 10° WSW 13:50:09 68° NW 13:55:55 10° NE daylight
24 Feb - 15:36:11 10° NW 15:37:57 11° NNW 15:39:47 10° NNW daylight
24 Feb - 22:59:22 10° NNE 23:00:37 10° NNE 23:01:51 10° NE night (unlit)
25 Feb - 00:42:07 10° NW 00:48:47 52° NE 00:54:35 10° ESE night (unlit)
25 Feb - 02:30:50 10° W 02:35:59 26° SW 02:40:32 10° SSE night (unlit)
25 Feb - 11:40:28 10° S 11:43:00 15° SE 11:45:43 10° ESE daylight
25 Feb - 13:25:06 10° WSW 13:29:49 63° NW 13:35:23 10° NE daylight
25 Feb - 22:38:01 10° NNE 22:40:13 11° NNE 22:42:23 10° NE night (unlit)
26 Feb - 00:21:32 10° NW 00:28:22 56° NE 00:34:21 10° ESE night (unlit)
26 Feb - 02:10:23 10° W 02:15:35 26° SW 02:20:13 10° SSE night (unlit)
26 Feb - 11:20:07 10° S 11:22:42 15° SE 11:25:26 10° ESE daylight
26 Feb - 13:04:56 10° WSW 13:09:30 58° NW 13:14:51 10° NE daylight
26 Feb - 22:16:58 10° N 22:19:49 12° NE 22:22:35 10° ENE night (unlit)
27 Feb - 00:00:56 10° NW 00:07:55 60° NE 00:14:06 10° ESE night (unlit)
27 Feb - 01:49:55 10° W 01:55:11 25° SW 01:59:54 10° SSE night (unlit)
27 Feb - 10:59:46 10° S 11:02:25 16° SE 11:05:12 10° E daylight
27 Feb - 12:44:46 10° WSW 12:49:12 53° NW 12:54:20 10° NE daylight
27 Feb - 21:56:04 10° N 21:59:24 13° NE 22:02:39 10° ENE night (unlit)
27 Feb - 23:40:21 10° NW 23:47:28 64° NE 23:53:49 10° ESE night (unlit)
